This is the latest recevied weather packets stored in our database for station/object W5ADC. If no packets are shown the sender has not sent any weather packets the latest 10 day(s).
| Time | Temp. | Humidity | Pressure | Rain* | Wind** | Luminosity | Snow |
|---|---|---|---|---|---|---|---|
| 1777088976 | 24.44° C | 64% | 1002.2 hPa | 0 mm | - | 0 W/m² | - |
| 1777088672 | 25° C | 59% | 1002 hPa | 0 mm | - | 0 W/m² | - |
| 1777088367 | 25° C | 57% | 1001.8 hPa | 0 mm | - | 0 W/m² | - |
| 1777088061 | 25.56° C | 54% | 1001.4 hPa | 0 mm | - | 0 W/m² | - |
| 1777087755 | 25.56° C | 52% | 1001.2 hPa | 0 mm | - | 0 W/m² | - |
| 1777087450 | 25.56° C | 52% | 1001.2 hPa | 0 mm | - | 0 W/m² | - |
| 1777087145 | 25.56° C | 51% | 1001.2 hPa | 0 mm | - | 0 W/m² | - |
| 1777086841 | 25° C | 51% | 1001 hPa | 0 mm | - | 0 W/m² | - |
| 1777086536 | 24.44° C | 53% | 1001 hPa | 0 mm | - | 0 W/m² | - |
| 1777086232 | 24.44° C | 55% | 1001 hPa | 0 mm | - | 0 W/m² | - |
| 1777085932 | 24.44° C | 54% | 1000.7 hPa | 0 mm | - | 0 W/m² | - |
| 1777085630 | 24.44° C | 56% | 1000.8 hPa | 0 mm | - | 0 W/m² | - |
| 1777085325 | 24.44° C | 56% | 1000.7 hPa | 0 mm | - | 0 W/m² | - |
| 1777085022 | 24.44° C | 55% | 1000.6 hPa | 0 mm | - | 0 W/m² | - |
| 1777084718 | 25° C | 54% | 1000.7 hPa | 0 mm | - | 0 W/m² | - |
| 1777084413 | 25° C | 53% | 1000.7 hPa | 0 mm | - | 0 W/m² | - |
| 1777084108 | 25.56° C | 52% | 1000.6 hPa | 0 mm | - | 0 W/m² | - |
| 1777083805 | 25° C | 52% | 1000.7 hPa | 0 mm | - | 0 W/m² | - |
| 1777083502 | 25.56° C | 52% | 1000.5 hPa | 0 mm | - | 0 W/m² | - |
| 1777083199 | 25.56° C | 51% | 1000.6 hPa | 0 mm | - | 0 W/m² | - |
| 1777082899 | 26.11° C | 51% | 1000.6 hPa | 0 mm | - | 0 W/m² | - |
| 1777082594 | 26.11° C | 50% | 1000.8 hPa | 0 mm | - | 0 W/m² | - |
| 1777082289 | 26.11° C | 49% | 1000.6 hPa | 0 mm | - | 0 W/m² | - |
| 1777081984 | 26.67° C | 49% | 1000.6 hPa | 0 mm | - | 0 W/m² | - |
| 1777081679 | 26.67° C | 48% | 1000.4 hPa | 0 mm | - | 0 W/m² | - |
* Rain latest hour (hover to see other rain measurements)
** Current wind speed in m/s (hover to see current wind gust speed)